Time,TemperatureF,DewpointF,PressureIn,WindDirection,WindDirectionDegrees,WindSpeedMPH,WindSpeedGustMPH,Humidity,HourlyPrecipIn,Conditions,Clouds,dailyrainin,SoftwareType,DateUTC
2009-09-25 00:00:00,62.4,35.1,28.38,WNW,292,0.0,3.0,36,0.00,CLR,FEW,0.00,WeatherDisplay:10.37,2009-09-25 07:00:00,
2009-09-25 00:05:00,61.9,34.6,28.38,WNW,292,2.3,0.0,36,0.00,CLR,FEW,0.00,WeatherDisplay:10.37,2009-09-25 07:05:00,
2009-09-25 00:10:00,61.9,34.6,28.38,WNW,292,0.0,2.0,36,0.00,CLR,FEW,0.00,WeatherDisplay:10.37,2009-09-25 07:10:00,
2009-09-25 00:20:00,61.5,34.3,28.38,WNW,292,0.0,2.0,36,0.00,CLR,FEW,0.00,WeatherDisplay:10.37,2009-09-25 07:20:00,
2009-09-25 00:30:00,61.9,34.6,28.38,WNW,292,2.0,3.0,36,0.00,CLR,FEW,0.00,WeatherDisplay:10.37,2009-09-25 07:30:00,
2009-09-25 00:40:00,61.7,34.5,28.38,WNW,292,0.0,3.0,36,0.00,CLR,FEW,0.00,WeatherDisplay:10.37,2009-09-25 07:40:00,
2009-09-25 00:50:00,61.7,34.5,28.38,WNW,292,0.0,3.0,36,0.00,CLR,FEW,0.00,WeatherDisplay:10.37,2009-09-25 07:50:00,
2009-09-25 01:00:00,62.1,34.1,28.38,WNW,292,2.0,3.0,35,0.00,CLR,FEW,0.00,WeatherDisplay:10.37,2009-09-25 08:00:00,
2009-09-25 01:05:00,62.1,34.1,28.38,WNW,292,0.0,2.0,35,0.00,CLR,FEW,0.00,WeatherDisplay:10.37,2009-09-25 08:05:00,
2009-09-25 01:10:00,62.6,34.5,28.38,WNW,292,0.0,3.0,35,0.00,CLR,FEW,0.00,WeatherDisplay:10.37,2009-09-25 08:10:00,
2009-09-25 01:20:00,62.1,34.1,28.38,WNW,292,0.0,3.0,35,0.00,CLR,FEW,0.00,WeatherDisplay:10.37,2009-09-25 08:20:00,
2009-09-25 01:30:00,62.4,34.4,28.38,WNW,292,0.0,2.0,35,0.00,CLR,FEW,0.00,WeatherDisplay:10.37,2009-09-25 08:30:00,
2009-09-25 01:40:00,63.0,34.9,28.38,WNW,292,2.0,3.0,35,0.00,CLR,FEW,0.00,WeatherDisplay:10.37,2009-09-25 08:40:00,
2009-09-25 01:50:00,62.5,33.7,28.38,WNW,292,2.0,3.0,34,0.00,CLR,FEW,0.00,WeatherDisplay:10.37,2009-09-25 08:50:00,
2009-09-25 02:00:00,62.6,33.8,28.38,WNW,292,2.0,3.0,34,0.00,CLR,FEW,0.00,WeatherDisplay:10.37,2009-09-25 09:00:00,
2009-09-25 02:05:00,62.6,33.8,28.38,WNW,292,2.7,2.7,34,0.00,CLR,FEW,0.00,WeatherDisplay:10.37,2009-09-25 09:05:00,
2009-09-25 02:15:00,62.6,33.8,28.38,WNW,292,0.0,3.0,34,0.00,CLR,FEW,0.00,WeatherDisplay:10.37,2009-09-25 09:15:00,
2009-09-25 02:20:00,62.3,34.3,28.38,WNW,292,2.0,3.0,35,0.00,CLR,FEW,0.00,WeatherDisplay:10.37,2009-09-25 09:20:00,
2009-09-25 02:30:00,62.9,34.1,28.35,WNW,292,0.0,3.0,34,0.00,CLR,FEW,0.00,WeatherDisplay:10.37,2009-09-25 09:30:00,
2009-09-25 02:40:00,63.5,34.6,28.35,WNW,292,0.0,2.0,34,0.00,CLR,FEW,0.00,WeatherDisplay:10.37,2009-09-25 09:40:00,
2009-09-25 02:50:00,63.6,34.7,28.35,WNW,292,0.0,3.0,34,0.00,CLR,FEW,0.00,WeatherDisplay:10.37,2009-09-25 09:50:00,
2009-09-25 03:00:00,63.3,34.4,28.36,WNW,292,2.0,3.0,34,0.00,CLR,FEW,0.00,WeatherDisplay:10.37,2009-09-25 10:00:00,
2009-09-25 03:05:00,63.0,34.1,28.38,WNW,292,2.0,3.0,34,0.00,CLR,FEW,0.00,WeatherDisplay:10.37,2009-09-25 10:05:00,
2009-09-25 03:10:00,63.1,34.3,28.38,WNW,292,2.0,3.0,34,0.00,CLR,FEW,0.00,WeatherDisplay:10.37,2009-09-25 10:10:00,
2009-09-25 03:20:00,62.6,34.5,28.35,WNW,292,0.0,2.0,35,0.00,CLR,FEW,0.00,WeatherDisplay:10.37,2009-09-25 10:20:00,
2009-09-25 03:35:00,63.1,34.3,28.35,WNW,292,2.0,3.0,34,0.00,CLR,FEW,0.00,WeatherDisplay:10.37,2009-09-25 10:35:00,
2009-09-25 03:40:00,63.5,34.6,28.35,WNW,292,1.0,3.0,34,0.00,CLR,FEW,0.00,WeatherDisplay:10.37,2009-09-25 10:40:00,
2009-09-25 03:50:00,63.9,34.9,28.35,WNW,292,0.0,2.0,34,0.00,CLR,FEW,0.00,WeatherDisplay:10.37,2009-09-25 10:50:00,
2009-09-25 04:00:00,64.2,34.5,28.35,WNW,292,0.0,3.0,33,0.00,CLR,FEW,0.00,WeatherDisplay:10.37,2009-09-25 11:00:00,
2009-09-25 04:05:00,64.0,34.3,28.35,WNW,292,2.3,0.0,33,0.00,CLR,FEW,0.00,WeatherDisplay:10.37,2009-09-25 11:05:00,
2009-09-25 04:15:00,64.3,34.6,28.35,WNW,292,0.0,3.0,33,0.00,CLR,FEW,0.00,WeatherDisplay:10.37,2009-09-25 11:15:00,
2009-09-25 04:25:00,64.4,34.6,28.35,WNW,292,0.0,3.0,33,0.00,CLR,FEW,0.00,WeatherDisplay:10.37,2009-09-25 11:25:00,
2009-09-25 04:30:00,64.6,34.8,28.35,WNW,292,0.0,2.0,33,0.00,CLR,FEW,0.00,WeatherDisplay:10.37,2009-09-25 11:30:00,
2009-09-25 04:40:00,64.7,35.0,28.35,WNW,292,0.0,2.0,33,0.00,CLR,FEW,0.00,WeatherDisplay:10.37,2009-09-25 11:40:00,
2009-09-25 04:50:00,64.4,34.6,28.38,WNW,292,2.0,3.0,33,0.00,CLR,FEW,0.00,WeatherDisplay:10.37,2009-09-25 11:50:00,
2009-09-25 05:00:00,64.4,34.6,28.35,WNW,292,2.0,3.0,33,0.00,CLR,FEW,0.00,WeatherDisplay:10.37,2009-09-25 12:00:00,
2009-09-25 05:05:00,64.4,34.6,28.35,WNW,292,0.0,3.0,33,0.00,CLR,FEW,0.00,WeatherDisplay:10.37,2009-09-25 12:05:00,
2009-09-25 05:10:00,64.6,34.8,28.35,WNW,292,0.0,3.0,33,0.00,CLR,FEW,0.00,WeatherDisplay:10.37,2009-09-25 12:10:00,
2009-09-25 05:20:00,64.8,34.2,28.35,WNW,292,0.0,3.0,32,0.00,CLR,FEW,0.00,WeatherDisplay:10.37,2009-09-25 12:20:00,
2009-09-25 05:30:00,64.7,34.1,28.36,WNW,292,0.0,2.0,32,0.00,CLR,FEW,0.00,WeatherDisplay:10.37,2009-09-25 12:30:00,
2009-09-25 05:45:00,64.6,34.0,28.35,WNW,292,0.0,2.0,32,0.00,CLR,FEW,0.00,WeatherDisplay:10.37,2009-09-25 12:45:00,
2009-09-25 05:50:00,64.6,34.0,28.35,WNW,292,1.0,2.0,32,0.00,CLR,FEW,0.00,WeatherDisplay:10.37,2009-09-25 12:50:00,
2009-09-25 06:00:00,64.8,34.2,28.38,WNW,292,0.0,3.0,32,0.00,CLR,FEW,0.00,WeatherDisplay:10.37,2009-09-25 13:00:00,
2009-09-25 06:05:00,65.0,33.6,28.38,WNW,292,2.0,3.0,31,0.00,CLR,FEW,0.00,WeatherDisplay:10.37,2009-09-25 13:05:00,
2009-09-25 06:10:00,65.1,34.5,28.38,WNW,292,2.0,3.0,32,0.00,CLR,FEW,0.00,WeatherDisplay:10.37,2009-09-25 13:10:00,
2009-09-25 06:25:00,65.3,33.8,28.38,WNW,292,2.0,3.0,31,0.00,CLR,FEW,0.00,WeatherDisplay:10.37,2009-09-25 13:25:00,
2009-09-25 06:30:00,65.4,33.1,28.38,WNW,292,2.0,3.0,30,0.00,CLR,FEW,0.00,WeatherDisplay:10.37,2009-09-25 13:30:00,
2009-09-25 06:40:00,65.4,34.0,28.38,WNW,292,2.0,3.0,31,0.00,CLR,FEW,0.00,WeatherDisplay:10.37,2009-09-25 13:40:00,
2009-09-25 06:50:00,65.3,33.9,28.38,WNW,292,2.0,3.0,31,0.00,CLR,FEW,0.00,WeatherDisplay:10.37,2009-09-25 13:50:00,
2009-09-25 07:00:00,65.3,33.0,28.38,WNW,292,2.0,3.0,30,0.00,CLR,FEW,0.00,WeatherDisplay:10.37,2009-09-25 14:00:00,
2009-09-25 07:05:00,65.3,33.9,28.38,WNW,292,2.0,3.0,31,0.00,CLR,FEW,0.00,WeatherDisplay:10.37,2009-09-25 14:05:00,
2009-09-25 07:10:00,65.4,33.2,28.38,WNW,292,2.0,3.0,30,0.00,CLR,FEW,0.00,WeatherDisplay:10.37,2009-09-25 14:10:00,
2009-09-25 07:25:00,65.3,33.9,28.38,WNW,292,0.0,3.0,31,0.00,CLR,FEW,0.00,WeatherDisplay:10.37,2009-09-25 14:25:00,
2009-09-25 07:35:00,65.7,34.2,28.38,WNW,292,0.0,2.0,31,0.00,CLR,FEW,0.00,WeatherDisplay:10.37,2009-09-25 14:35:00,
2009-09-25 07:40:00,65.8,34.3,28.38,WNW,292,2.0,3.0,31,0.00,CLR,FEW,0.00,WeatherDisplay:10.37,2009-09-25 14:40:00,
2009-09-25 07:50:00,66.7,34.3,28.38,WNW,292,0.0,2.0,30,0.00,CLR,FEW,0.00,WeatherDisplay:10.37,2009-09-25 14:50:00,
2009-09-25 08:00:00,67.2,35.5,28.38,WNW,292,0.0,3.0,31,0.00,CLR,FEW,0.00,WeatherDisplay:10.37,2009-09-25 15:00:00,
2009-09-25 08:05:00,67.5,35.8,28.38,WNW,292,2.0,3.0,31,0.00,CLR,FEW,0.00,WeatherDisplay:10.37,2009-09-25 15:05:00,
2009-09-25 08:10:00,68.0,35.4,28.38,WNW,292,0.0,3.0,30,0.00,CLR,FEW,0.00,WeatherDisplay:10.37,2009-09-25 15:10:00,
2009-09-25 08:25:00,69.3,35.6,28.41,WNW,292,0.0,3.0,29,0.00,CLR,FEW,0.00,WeatherDisplay:10.37,2009-09-25 15:25:00,
2009-09-25 08:30:00,69.8,35.2,28.40,WNW,292,0.0,3.0,28,0.00,CLR,FEW,0.00,WeatherDisplay:10.37,2009-09-25 15:30:00,
2009-09-25 08:40:00,70.3,34.8,28.38,WNW,292,0.0,0.0,27,0.00,CLR,FEW,0.00,WeatherDisplay:10.37,2009-09-25 15:40:00,
2009-09-25 08:50:00,71.2,35.5,28.41,WNW,292,0.0,0.0,27,0.00,CLR,FEW,0.00,WeatherDisplay:10.37,2009-09-25 15:50:00,
2009-09-25 09:00:00,71.8,36.0,28.41,WNW,292,0.0,0.0,27,0.00,CLR,FEW,0.00,WeatherDisplay:10.37,2009-09-25 16:00:00,
2009-09-25 09:05:00,72.3,35.5,28.38,WNW,292,0.0,0.0,26,0.00,CLR,FEW,0.00,WeatherDisplay:10.37,2009-09-25 16:05:00,
2009-09-25 09:10:00,72.7,36.8,28.38,WNW,292,0.0,0.0,27,0.00,CLR,FEW,0.00,WeatherDisplay:10.37,2009-09-25 16:10:00,
2009-09-25 09:20:00,73.4,35.4,28.41,WNW,292,0.0,0.0,25,0.00,CLR,FEW,0.00,WeatherDisplay:10.37,2009-09-25 16:20:00,
2009-09-25 09:30:00,74.3,35.2,28.41,WNW,292,0.0,0.0,24,0.00,CLR,FEW,0.00,WeatherDisplay:10.37,2009-09-25 16:30:00,
2009-09-25 09:40:00,75.0,33.6,28.41,WNW,292,0.0,0.0,22,0.00,CLR,FEW,0.00,WeatherDisplay:10.37,2009-09-25 16:40:00,
2009-09-25 09:50:00,75.7,34.2,28.41,WNW,292,0.0,0.0,22,0.00,CLR,FEW,0.00,WeatherDisplay:10.37,2009-09-25 16:50:00,
2009-09-25 10:00:00,76.5,39.0,28.41,WNW,292,0.0,0.0,26,0.00,CLR,FEW,0.00,WeatherDisplay:10.37,2009-09-25 17:00:00,
2009-09-25 10:05:00,76.8,45.5,28.41,WNW,292,0.0,0.0,33,0.00,CLR,FEW,0.00,WeatherDisplay:10.37,2009-09-25 17:05:00,
2009-09-25 10:10:00,76.6,50.5,28.41,WNW,292,0.0,0.0,40,0.00,CLR,FEW,0.00,WeatherDisplay:10.37,2009-09-25 17:10:00,
2009-09-25 10:25:00,75.6,49.5,28.41,WNW,292,0.0,0.0,40,0.00,CLR,FEW,0.00,WeatherDisplay:10.37,2009-09-25 17:25:00,
2009-09-25 10:30:00,75.4,49.4,28.41,WNW,292,0.0,0.0,40,0.00,CLR,FEW,0.00,WeatherDisplay:10.37,2009-09-25 17:30:00,
2009-09-25 10:40:00,75.4,50.0,28.41,WNW,292,0.0,0.0,41,0.00,CLR,FEW,0.00,WeatherDisplay:10.37,2009-09-25 17:40:00,
2009-09-25 10:50:00,75.7,41.2,28.41,WNW,292,0.0,0.0,29,0.00,CLR,FEW,0.00,WeatherDisplay:10.37,2009-09-25 17:50:00,
2009-09-25 11:00:00,76.5,40.0,28.41,WNW,292,0.0,0.0,27,0.00,CLR,FEW,0.00,WeatherDisplay:10.37,2009-09-25 18:00:00,
2009-09-25 11:05:00,76.8,41.2,28.41,WNW,292,0.0,0.0,28,0.00,CLR,FEW,0.00,WeatherDisplay:10.37,2009-09-25 18:05:00,
2009-09-25 11:15:00,78.3,43.4,28.44,WNW,300,0.0,2.0,29,0.00,CLR,FEW,0.00,WeatherDisplay:10.37,2009-09-25 18:15:00,
2009-09-25 11:20:00,78.8,44.7,28.44,NNW,338,0.0,0.0,30,0.00,CLR,FEW,0.00,WeatherDisplay:10.37,2009-09-25 18:20:00,
2009-09-25 11:30:00,80.4,51.0,28.41,NNE,31,0.0,0.0,36,0.00,CLR,FEW,0.00,WeatherDisplay:10.37,2009-09-25 18:30:00,
2009-09-25 11:40:00,79.5,53.1,28.41,NE,43,0.0,2.0,40,0.00,CLR,FEW,0.00,WeatherDisplay:10.37,2009-09-25 18:40:00,
2009-09-25 11:50:00,78.6,52.3,28.44,NE,45,0.0,0.0,40,0.00,CLR,FEW,0.00,WeatherDisplay:10.37,2009-09-25 18:50:00,
2009-09-25 12:00:00,78.3,49.1,28.44,NE,45,2.3,0.0,36,0.00,CLR,FEW,0.00,WeatherDisplay:10.37,2009-09-25 19:00:00,
2009-09-25 12:01:00,78.6,51.6,28.44,NE,45,0.0,0.0,39,0.00,CLR,FEW,0.00,WeatherDisplay:10.37,2009-09-25 19:01:00,
2009-09-25 12:06:00,78.4,52.1,28.44,NE,45,0.0,0.0,40,0.00,CLR,FEW,0.00,WeatherDisplay:10.37,2009-09-25 19:06:00,
2009-09-25 12:15:00,78.3,50.6,28.44,NE,45,0.0,2.0,38,0.00,CLR,FEW,0.00,WeatherDisplay:10.37,2009-09-25 19:15:00,
2009-09-25 12:20:00,78.4,50.0,28.44,NE,45,0.0,3.0,37,0.00,CLR,FEW,0.00,WeatherDisplay:10.37,2009-09-25 19:20:00,
2009-09-25 12:30:00,79.0,51.2,28.44,NE,45,0.0,0.0,38,0.00,CLR,FEW,0.00,WeatherDisplay:10.37,2009-09-25 19:30:00,
2009-09-25 12:40:00,79.7,49.6,28.44,NE,45,0.0,0.0,35,0.00,CLR,FEW,0.00,WeatherDisplay:10.37,2009-09-25 19:40:00,
2009-09-25 12:50:00,79.7,50.4,28.44,NE,45,0.0,0.0,36,0.00,CLR,FEW,0.00,WeatherDisplay:10.37,2009-09-25 19:50:00,
2009-09-25 13:00:00,79.2,49.2,28.44,NE,45,0.0,3.0,35,0.00,CLR,FEW,0.00,WeatherDisplay:10.37,2009-09-25 20:00:00,
2009-09-25 13:05:00,79.2,49.1,28.44,NE,45,0.0,0.0,35,0.00,CLR,FEW,0.00,WeatherDisplay:10.37,2009-09-25 20:05:00,
2009-09-25 13:10:00,79.2,48.4,28.44,NE,45,0.0,3.0,34,0.00,CLR,FEW,0.00,WeatherDisplay:10.37,2009-09-25 20:10:00,
2009-09-25 13:20:00,79.0,49.7,28.44,NE,36,0.0,2.0,36,0.00,CLR,FEW,0.00,WeatherDisplay:10.37,2009-09-25 20:20:00,
2009-09-25 13:30:00,79.3,50.1,28.44,NE,45,0.0,0.0,36,0.00,CLR,FEW,0.00,WeatherDisplay:10.37,2009-09-25 20:30:00,
2009-09-25 13:45:00,80.0,48.3,28.44,NE,45,0.0,3.0,33,0.00,CLR,FEW,0.00,WeatherDisplay:10.37,2009-09-25 20:45:00,
2009-09-25 13:50:00,80.2,48.5,28.44,NE,45,0.0,0.0,33,0.00,CLR,FEW,0.00,WeatherDisplay:10.37,2009-09-25 20:50:00,
2009-09-25 14:00:00,80.6,48.0,28.43,NE,45,0.0,3.0,32,0.00,CLR,FEW,0.00,WeatherDisplay:10.37,2009-09-25 21:00:00,
2009-09-25 14:05:00,80.6,47.2,28.41,NE,45,2.7,0.0,31,0.00,CLR,FEW,0.00,WeatherDisplay:10.37,2009-09-25 21:05:00,
2009-09-25 14:15:00,80.8,47.3,28.42,NE,37,0.0,0.0,31,0.00,CLR,FEW,0.00,WeatherDisplay:10.37,2009-09-25 21:15:00,
2009-09-25 14:25:00,81.0,48.3,28.44,NNE,22,0.0,0.0,32,0.00,CLR,FEW,0.00,WeatherDisplay:10.37,2009-09-25 21:25:00,
2009-09-25 14:30:00,81.0,49.1,28.44,NNE,22,0.0,3.0,33,0.00,CLR,FEW,0.00,WeatherDisplay:10.37,2009-09-25 21:30:00,
2009-09-25 14:40:00,80.4,49.4,28.44,NNE,22,0.0,2.0,34,0.00,CLR,FEW,0.00,WeatherDisplay:10.37,2009-09-25 21:40:00,
2009-09-25 14:50:00,80.1,49.2,28.44,NNE,22,0.0,0.0,34,0.00,CLR,FEW,0.00,WeatherDisplay:10.37,2009-09-25 21:50:00,
2009-09-25 15:00:00,80.1,49.9,28.44,NNE,22,0.0,3.0,35,0.00,CLR,FEW,0.00,WeatherDisplay:10.37,2009-09-25 22:00:00,
2009-09-25 15:05:00,80.1,49.2,28.44,NNE,22,0.0,2.0,34,0.00,CLR,FEW,0.00,WeatherDisplay:10.37,2009-09-25 22:05:00,
2009-09-25 15:10:00,80.1,49.9,28.44,NNE,22,0.0,3.0,35,0.00,CLR,FEW,0.00,WeatherDisplay:10.37,2009-09-25 22:10:00,
2009-09-25 15:20:00,80.2,50.1,28.44,NNE,22,0.0,0.0,35,0.00,CLR,FEW,0.00,WeatherDisplay:10.37,2009-09-25 22:20:00,
2009-09-25 15:35:00,80.2,50.1,28.41,NNE,22,0.0,0.0,35,0.00,CLR,FEW,0.00,WeatherDisplay:10.37,2009-09-25 22:35:00,
2009-09-25 15:40:00,80.2,50.1,28.41,NNE,22,0.0,0.0,35,0.00,CLR,FEW,0.00,WeatherDisplay:10.37,2009-09-25 22:40:00,
2009-09-25 15:50:00,80.6,49.6,28.41,NNE,22,0.0,3.0,34,0.00,CLR,FEW,0.00,WeatherDisplay:10.37,2009-09-25 22:50:00,
2009-09-25 16:00:00,80.6,50.4,28.41,NNE,22,0.0,0.0,35,0.00,CLR,FEW,0.00,WeatherDisplay:10.37,2009-09-25 23:00:00,
2009-09-25 16:05:00,80.3,50.9,28.41,NNE,22,0.0,0.0,36,0.00,CLR,FEW,0.00,WeatherDisplay:10.37,2009-09-25 23:05:00,
2009-09-25 16:10:00,80.2,51.6,28.41,NNE,22,0.0,0.0,37,0.00,CLR,FEW,0.00,WeatherDisplay:10.37,2009-09-25 23:10:00,
2009-09-25 16:20:00,80.1,51.4,28.41,NNE,22,0.0,0.0,37,0.00,CLR,FEW,0.00,WeatherDisplay:10.37,2009-09-25 23:20:00,
2009-09-25 16:30:00,79.7,52.5,28.41,NNE,22,0.0,0.0,39,0.00,CLR,FEW,0.00,WeatherDisplay:10.37,2009-09-25 23:30:00,
2009-09-25 16:40:00,79.3,52.9,28.41,NNE,22,0.0,0.0,40,0.00,CLR,FEW,0.00,WeatherDisplay:10.37,2009-09-25 23:40:00,
2009-09-25 16:55:00,78.8,53.7,28.41,NNE,22,0.0,0.0,42,0.00,CLR,FEW,0.00,WeatherDisplay:10.37,2009-09-25 23:55:00,
2009-09-25 17:00:00,78.3,53.9,28.44,NNE,22,0.0,0.0,43,0.00,CLR,FEW,0.00,WeatherDisplay:10.37,2009-09-26 00:00:00,
2009-09-25 17:01:00,78.6,54.2,28.44,NNE,22,0.0,0.0,43,0.00,CLR,FEW,0.00,WeatherDisplay:10.37,2009-09-26 00:01:00,
2009-09-25 17:06:00,78.4,54.1,28.44,NNE,22,0.0,0.0,43,0.00,CLR,FEW,0.00,WeatherDisplay:10.37,2009-09-26 00:06:00,
2009-09-25 17:15:00,78.3,53.9,28.41,NNE,22,0.0,0.0,43,0.00,CLR,FEW,0.00,WeatherDisplay:10.37,2009-09-26 00:15:00,
2009-09-25 17:20:00,78.3,54.6,28.41,NNE,22,0.0,0.0,44,0.00,CLR,FEW,0.00,WeatherDisplay:10.37,2009-09-26 00:20:00,
2009-09-25 17:30:00,78.1,53.8,28.41,NNE,22,0.0,0.0,43,0.00,CLR,FEW,0.00,WeatherDisplay:10.37,2009-09-26 00:30:00,
2009-09-25 17:40:00,78.1,54.4,28.41,NNE,22,0.0,0.0,44,0.00,CLR,FEW,0.00,WeatherDisplay:10.37,2009-09-26 00:40:00,
2009-09-25 17:50:00,77.9,54.2,28.41,NNE,22,0.0,0.0,44,0.00,CLR,FEW,0.00,WeatherDisplay:10.37,2009-09-26 00:50:00,
2009-09-25 18:00:00,77.7,54.1,28.41,NNE,22,0.0,0.0,44,0.00,CLR,FEW,0.00,WeatherDisplay:10.37,2009-09-26 01:00:00,
2009-09-25 18:05:00,77.5,53.9,28.41,NNE,22,0.0,0.0,44,0.00,CLR,FEW,0.00,WeatherDisplay:10.37,2009-09-26 01:05:00,
2009-09-25 18:15:00,77.5,53.9,28.41,NNE,22,0.0,0.0,44,0.00,CLR,FEW,0.00,WeatherDisplay:10.37,2009-09-26 01:15:00,
2009-09-25 18:20:00,77.5,53.8,28.41,NNE,22,0.0,0.0,44,0.00,CLR,FEW,0.00,WeatherDisplay:10.37,2009-09-26 01:20:00,
2009-09-25 18:30:00,77.0,54.6,28.41,NNE,22,0.0,0.0,46,0.00,CLR,FEW,0.00,WeatherDisplay:10.37,2009-09-26 01:30:00,
2009-09-25 18:40:00,76.3,55.1,28.41,NNE,22,0.0,0.0,48,0.00,CLR,FEW,0.00,WeatherDisplay:10.37,2009-09-26 01:40:00,
2009-09-25 18:55:00,75.4,55.5,28.44,NNE,22,0.0,0.0,50,0.00,CLR,FEW,0.00,WeatherDisplay:10.37,2009-09-26 01:55:00,
2009-09-25 19:00:00,75.1,55.7,28.43,NNE,22,0.0,0.0,51,0.00,CLR,FEW,0.00,WeatherDisplay:10.37,2009-09-26 02:00:00,
2009-09-25 19:05:00,74.7,55.9,28.41,NNE,22,0.0,0.0,52,0.00,CLR,FEW,0.00,WeatherDisplay:10.37,2009-09-26 02:05:00,
2009-09-25 19:10:00,74.3,55.6,28.41,NNE,22,0.0,0.0,52,0.00,CLR,FEW,0.00,WeatherDisplay:10.37,2009-09-26 02:10:00,
2009-09-25 19:20:00,73.5,55.3,28.41,NNE,22,0.0,0.0,53,0.00,CLR,FEW,0.00,WeatherDisplay:10.37,2009-09-26 02:20:00,
2009-09-25 19:35:00,72.5,54.9,28.44,NNE,22,0.0,0.0,54,0.00,CLR,FEW,0.00,WeatherDisplay:10.37,2009-09-26 02:35:00,
2009-09-25 19:40:00,72.3,54.2,28.44,NNE,22,0.0,0.0,53,0.00,CLR,FEW,0.00,WeatherDisplay:10.37,2009-09-26 02:40:00,
2009-09-25 19:50:00,71.8,52.1,28.44,NNE,22,0.0,0.0,50,0.00,CLR,FEW,0.00,WeatherDisplay:10.37,2009-09-26 02:50:00,
2009-09-25 20:00:00,71.6,50.3,28.44,NNE,22,0.0,0.0,47,0.00,CLR,FEW,0.00,WeatherDisplay:10.37,2009-09-26 03:00:00,
2009-09-25 20:05:00,71.4,49.0,28.44,NNE,22,0.0,0.0,45,0.00,CLR,FEW,0.00,WeatherDisplay:10.37,2009-09-26 03:05:00,
2009-09-25 20:15:00,70.9,47.3,28.44,NNE,22,0.0,0.0,43,0.00,CLR,FEW,0.00,WeatherDisplay:10.37,2009-09-26 03:15:00,
2009-09-25 20:20:00,71.1,45.5,28.44,NNE,22,0.0,0.0,40,0.00,CLR,FEW,0.00,WeatherDisplay:10.37,2009-09-26 03:20:00,
2009-09-25 20:30:00,70.9,42.6,28.44,NNE,22,0.0,0.0,36,0.00,CLR,FEW,0.00,WeatherDisplay:10.37,2009-09-26 03:30:00,
2009-09-25 20:40:00,70.7,40.9,28.44,NNE,22,0.0,0.0,34,0.00,CLR,FEW,0.00,WeatherDisplay:10.37,2009-09-26 03:40:00,
2009-09-25 20:55:00,70.5,39.2,28.44,NNE,22,0.0,0.0,32,0.00,CLR,FEW,0.00,WeatherDisplay:10.37,2009-09-26 03:55:00,
2009-09-25 21:00:00,70.7,39.4,28.44,NNE,22,0.0,0.0,32,0.00,CLR,FEW,0.00,WeatherDisplay:10.37,2009-09-26 04:00:00,
2009-09-25 21:01:00,70.7,39.4,28.44,NNE,22,0.0,0.0,32,0.00,CLR,FEW,0.00,WeatherDisplay:10.37,2009-09-26 04:01:00,
2009-09-25 21:05:00,70.7,39.4,28.44,NNE,22,0.0,0.0,32,0.00,CLR,FEW,0.00,WeatherDisplay:10.37,2009-09-26 04:05:00,
2009-09-25 21:15:00,70.3,37.4,28.44,NNE,22,0.0,0.0,30,0.00,CLR,FEW,0.00,WeatherDisplay:10.37,2009-09-26 04:15:00,
2009-09-25 21:20:00,70.3,37.4,28.44,NNE,22,0.0,0.0,30,0.00,CLR,FEW,0.00,WeatherDisplay:10.37,2009-09-26 04:20:00,
2009-09-25 21:30:00,70.2,35.5,28.44,NNE,22,0.0,0.0,28,0.00,CLR,FEW,0.00,WeatherDisplay:10.37,2009-09-26 04:30:00,
2009-09-25 21:40:00,70.2,34.6,28.44,NNE,22,0.0,0.0,27,0.00,CLR,FEW,0.00,WeatherDisplay:10.37,2009-09-26 04:40:00,
2009-09-25 21:55:00,70.7,34.1,28.44,NNE,22,0.0,0.0,26,0.00,CLR,FEW,0.00,WeatherDisplay:10.37,2009-09-26 04:55:00,
2009-09-25 22:00:00,70.9,34.3,28.44,NNE,22,0.0,0.0,26,0.00,CLR,FEW,0.00,WeatherDisplay:10.37,2009-09-26 05:00:00,
2009-09-25 22:05:00,70.7,34.1,28.44,NNE,22,0.0,0.0,26,0.00,CLR,FEW,0.00,WeatherDisplay:10.37,2009-09-26 05:05:00,
2009-09-25 22:10:00,70.7,33.1,28.44,NNE,22,0.0,0.0,25,0.00,CLR,FEW,0.00,WeatherDisplay:10.37,2009-09-26 05:10:00,
2009-09-25 22:20:00,70.9,34.3,28.44,NNE,22,0.0,0.0,26,0.00,CLR,FEW,0.00,WeatherDisplay:10.37,2009-09-26 05:20:00,
2009-09-25 22:30:00,70.2,33.7,28.44,NNE,22,0.0,0.0,26,0.00,CLR,FEW,0.00,WeatherDisplay:10.37,2009-09-26 05:30:00,
2009-09-25 22:40:00,69.9,33.5,28.44,NNE,22,0.0,0.0,26,0.00,CLR,FEW,0.00,WeatherDisplay:10.37,2009-09-26 05:40:00,
2009-09-25 22:50:00,70.0,32.5,28.44,NNE,22,0.0,0.0,25,0.00,CLR,FEW,0.00,WeatherDisplay:10.37,2009-09-26 05:50:00,
2009-09-25 23:00:00,69.6,34.1,28.44,NNE,22,0.0,0.0,27,0.00,CLR,FEW,0.00,WeatherDisplay:10.37,2009-09-26 06:00:00,
2009-09-25 23:05:00,69.3,32.9,28.44,NNE,22,0.0,0.0,26,0.00,CLR,FEW,0.00,WeatherDisplay:10.37,2009-09-26 06:05:00,
2009-09-25 23:15:00,69.8,32.4,28.44,NNE,22,0.0,0.0,25,0.00,CLR,FEW,0.00,WeatherDisplay:10.37,2009-09-26 06:15:00,
2009-09-25 23:20:00,70.3,31.8,28.44,NNE,22,0.0,0.0,24,0.00,CLR,FEW,0.00,WeatherDisplay:10.37,2009-09-26 06:20:00,
2009-09-25 23:30:00,70.9,32.3,28.44,NNE,22,0.0,0.0,24,0.00,CLR,FEW,0.00,WeatherDisplay:10.37,2009-09-26 06:30:00,
2009-09-25 23:40:00,70.6,32.0,28.44,NNE,22,0.0,0.0,24,0.00,CLR,FEW,0.00,WeatherDisplay:10.37,2009-09-26 06:40:00,
2009-09-25 23:50:00,70.5,33.0,28.44,NNE,22,0.0,0.0,25,0.00,CLR,FEW,0.00,WeatherDisplay:10.37,2009-09-26 06:50:00,